Date String (YYYY-MM-DD hh:mm:ss) UTC,Instrument flags,absolute air pressure of the measurement (hPa),sample flow rate (lpm),inlet stack bypass flow (lpm),air temperature of the measurement (°C),ambient temperature measured by the external sensor (°C),aerosol sample conditioner tube jacket temperature (°C),OPC LED temperature (°C),internal box temperature (°C),relative humidity of the measurement (%),span deviation,mass concentration of particles derived from Lorenz-Mie calculation of OPC scattering (μg/m³),mass concentration of particles derived from Lorenz-Mie calculation of OPC scattering (μg/m³),mass concentration of particles derived from Lorenz-Mie calculation of OPC scattering (μg/m³)
DateTimeUTC,F1_M11,P_M11,Q1_M11,Q2_M11,T1_M11,T2_M11,T3_M11,T4_M11,T5_M11,U1_M11,ZSPAN_M11,X0_M11,X2_M11,X1_M11
2023-11-05 00:00:00,SystemResetWarning,0832.3,4.99,000.00,027.6,023.7,000.0,036.0,028.5,13.1,0000.0,0008.20,0002.32,0001.51
2023-11-05 00:01:00,SystemResetWarning,0832.3,4.99,000.00,027.5,024.3,000.0,035.9,028.5,13.2,0000.0,0008.52,0002.34,0001.50
2023-11-05 00:02:00,SystemResetWarning,0832.3,5.01,000.00,027.5,024.7,000.0,035.9,028.6,13.3,0000.0,0008.46,0002.37,0001.49
2023-11-05 00:03:00,SystemResetWarning,0832.3,5.00,000.00,027.5,025.1,000.0,035.9,028.8,13.4,0000.0,0008.35,0002.38,0001.47
2023-11-05 00:04:00,SystemResetWarning,0832.3,4.99,000.00,027.5,025.5,000.0,035.9,028.9,13.5,0000.0,0008.29,0002.31,0001.45
2023-11-05 00:05:00,SystemResetWarning,0832.3,5.00,000.00,027.5,025.8,000.0,035.9,029.0,13.6,0000.0,0008.42,0002.33,0001.43
2023-11-05 00:06:00,SystemResetWarning,0832.3,5.00,000.00,027.5,026.0,000.0,035.8,029.1,13.6,0000.0,0008.73,0002.33,0001.42
2023-11-05 00:07:00,SystemResetWarning,0832.3,5.00,000.00,027.6,026.2,000.0,035.8,029.1,13.6,0000.0,0008.07,0002.35,0001.41
2023-11-05 00:08:00,SystemResetWarning,0832.3,5.01,000.00,027.6,026.4,000.0,035.9,029.2,13.6,0000.0,0007.73,0002.34,0001.39
2023-11-05 00:09:00,SystemResetWarning,0832.3,5.01,000.00,027.7,026.6,000.0,035.9,029.2,13.7,0000.0,0008.61,0002.36,0001.37
2023-11-05 00:10:00,SystemResetWarning,0832.3,5.00,000.00,027.7,026.7,000.0,035.9,029.3,13.6,0000.0,0008.37,0002.34,0001.36
2023-11-05 00:11:00,SystemResetWarning,0832.3,5.00,000.00,027.7,026.8,000.0,035.9,029.4,13.6,0000.0,0008.40,0002.34,0001.35
2023-11-05 00:12:00,SystemResetWarning,0832.3,5.00,000.00,027.8,026.9,000.0,035.9,029.4,13.6,0000.0,0008.30,0002.37,0001.34
2023-11-05 00:13:00,SystemResetWarning,0832.3,5.00,000.00,027.8,027.0,000.0,036.0,029.4,13.5,0000.0,0009.26,0002.35,0001.33
2023-11-05 00:14:00,SystemResetWarning,0832.3,5.00,000.00,027.9,027.0,000.0,036.0,029.5,13.5,0000.0,0009.82,0002.33,0001.31
2023-11-05 00:15:00,SystemResetWarning,0832.3,5.00,000.00,027.9,027.1,000.0,036.0,029.5,13.5,0000.0,0010.04,0002.39,0001.31
2023-11-05 00:16:00,SystemResetWarning,0832.3,5.00,000.00,027.9,027.2,000.0,036.0,029.6,13.4,0000.0,0009.88,0002.37,0001.30
2023-11-05 00:17:00,SystemResetWarning,0832.3,5.00,000.00,028.0,027.2,000.0,036.1,029.6,13.4,0000.0,0009.74,0002.34,0001.30
2023-11-05 00:18:00,SystemResetWarning,0832.4,5.00,000.00,028.0,027.3,000.0,036.1,029.6,13.4,0000.0,0009.90,0002.31,0001.30
2023-11-05 00:19:00,SystemResetWarning,0832.3,4.99,000.00,028.1,027.3,000.0,036.1,029.7,13.4,0000.0,0009.94,0002.36,0001.31
2023-11-05 00:20:00,SystemResetWarning,0832.4,5.00,000.00,028.1,027.4,000.0,036.2,029.7,13.4,0000.0,0009.36,0002.38,0001.31
2023-11-05 00:21:00,SystemResetWarning,0832.3,5.00,000.00,028.1,027.4,000.0,036.2,029.7,13.4,0000.0,0009.78,0002.41,0001.30
2023-11-05 00:22:00,SystemResetWarning,0832.3,5.00,000.00,028.2,027.4,000.0,036.2,029.8,13.4,0000.0,0009.81,0002.45,0001.31
2023-11-05 00:23:00,SystemResetWarning,0832.3,5.00,000.00,028.2,027.5,000.0,036.3,029.8,13.3,0000.0,0009.63,0002.42,0001.32
2023-11-05 00:24:00,SystemResetWarning,0832.3,5.00,000.00,028.2,027.5,000.0,036.3,029.8,13.3,0000.0,0008.63,0002.48,0001.34
2023-11-05 00:25:00,SystemResetWarning,0832.3,5.00,000.00,028.3,027.5,000.0,036.3,029.9,13.2,0000.0,0008.13,0002.48,0001.35
2023-11-05 00:26:00,SystemResetWarning,0832.3,4.99,000.00,028.2,025.9,000.0,036.3,029.7,13.2,0000.0,0007.94,0002.44,0001.36
2023-11-05 00:27:00,SystemResetWarning,0832.3,5.00,000.00,028.1,023.6,000.0,036.3,029.3,13.3,0000.0,0008.47,0002.47,0001.36
2023-11-05 00:28:00,SystemResetWarning,0832.3,5.01,000.00,027.9,023.1,000.0,036.2,029.0,13.4,0000.0,0008.40,0002.47,0001.36
2023-11-05 00:29:00,SystemResetWarning,0832.3,5.01,000.00,027.7,023.5,000.0,036.1,028.5,13.5,0000.0,0008.09,0002.49,0001.36
2023-11-05 00:30:00,SystemResetWarning,0832.3,4.99,000.00,027.6,024.0,000.0,036.1,028.5,13.7,0000.0,0008.67,0002.52,0001.36
2023-11-05 00:31:00,SystemResetWarning,0832.3,5.00,000.00,027.5,024.5,000.0,036.0,028.6,13.7,0000.0,0008.36,0002.51,0001.36
2023-11-05 00:32:00,SystemResetWarning,0832.3,4.99,000.00,027.5,025.0,000.0,036.0,028.7,13.7,0000.0,0007.84,0002.50,0001.37
2023-11-05 00:33:00,SystemResetWarning,0832.3,5.01,000.00,027.5,025.3,000.0,036.0,028.8,13.7,0000.0,0007.79,0002.44,0001.36
2023-11-05 00:34:00,SystemResetWarning,0832.3,5.00,000.00,027.5,025.6,000.0,035.9,028.9,13.7,0000.0,0007.94,0002.43,0001.34
2023-11-05 00:35:00,SystemResetWarning,0832.3,4.99,000.00,027.5,025.9,000.0,035.9,029.0,13.7,0000.0,0008.04,0002.41,0001.33
2023-11-05 00:36:00,SystemResetWarning,0832.3,5.01,000.00,027.6,026.1,000.0,035.9,029.1,13.7,0000.0,0008.86,0002.38,0001.34
2023-11-05 00:37:00,SystemResetWarning,0832.3,5.00,000.00,027.6,026.3,000.0,035.9,029.1,13.7,0000.0,0009.10,0002.37,0001.33
2023-11-05 00:38:00,SystemResetWarning,0832.3,5.00,000.00,027.6,026.4,000.0,035.9,029.2,13.7,0000.0,0008.57,0002.33,0001.33
2023-11-05 00:39:00,SystemResetWarning,0832.3,5.01,000.00,027.7,026.6,000.0,035.9,029.2,13.7,0000.0,0008.03,0002.28,0001.33
2023-11-05 00:40:00,SystemResetWarning,0832.3,5.00,000.00,027.7,026.7,000.0,035.9,029.2,13.7,0000.0,0007.96,0002.27,0001.33
2023-11-05 00:41:00,SystemResetWarning,0832.3,5.00,000.00,027.7,026.7,000.0,035.9,029.3,13.6,0000.0,0007.46,0002.26,0001.33
2023-11-05 00:42:00,SystemResetWarning,0832.3,5.00,000.00,027.7,026.8,000.0,036.0,029.3,13.6,0000.0,0007.49,0002.29,0001.34
2023-11-05 00:43:00,SystemResetWarning,0832.3,5.00,000.00,027.8,026.9,000.0,036.0,029.4,13.6,0000.0,0007.67,0002.31,0001.34
2023-11-05 00:44:00,SystemResetWarning,0832.3,5.00,000.00,027.8,026.9,000.0,036.0,029.4,13.5,0000.0,0007.73,0002.38,0001.36
2023-11-05 00:45:00,SystemResetWarning,0832.3,5.00,000.00,027.8,027.0,000.0,036.0,029.4,13.5,0000.0,0008.31,0002.37,0001.39
2023-11-05 00:46:00,SystemResetWarning,0832.3,5.00,000.00,027.9,027.0,000.0,036.0,029.4,13.5,0000.0,0008.44,0002.33,0001.41
2023-11-05 00:47:00,SystemResetWarning,0832.3,5.00,000.00,027.9,027.1,000.0,036.1,029.5,13.5,0000.0,0007.95,0002.32,0001.40
2023-11-05 00:48:00,SystemResetWarning,0832.3,5.00,000.00,027.9,027.1,000.0,036.1,029.5,13.4,0000.0,0008.40,0002.35,0001.42
2023-11-05 00:49:00,SystemResetWarning,0832.4,5.00,000.00,028.0,027.1,000.0,036.1,029.5,13.5,0000.0,0009.02,0002.38,0001.42
2023-11-05 00:50:00,SystemResetWarning,0832.4,5.00,000.00,028.0,027.1,000.0,036.1,029.5,13.5,0000.0,0009.28,0002.44,0001.46
2023-11-05 00:51:00,SystemResetWarning,0832.5,5.00,000.00,028.0,027.2,000.0,036.1,029.6,13.4,0000.0,0009.34,0002.44,0001.50
2023-11-05 00:52:00,SystemResetWarning,0832.5,5.00,000.00,028.0,027.2,000.0,036.2,029.6,13.4,0000.0,0009.42,0002.47,0001.53
2023-11-05 00:53:00,SystemResetWarning,0832.5,4.99,000.00,028.0,027.2,000.0,036.2,029.6,13.4,0000.0,0009.67,0002.45,0001.54
2023-11-05 00:54:00,SystemResetWarning,0832.5,5.00,000.00,028.1,027.2,000.0,036.2,029.6,13.3,0000.0,0009.84,0002.45,0001.56
2023-11-05 00:55:00,SystemResetWarning,0832.6,4.99,000.00,028.1,027.2,000.0,036.2,029.6,13.3,0000.0,0009.85,0002.44,0001.56
2023-11-05 00:56:00,SystemResetWarning,0832.5,5.00,000.00,028.1,027.2,000.0,036.3,029.6,13.6,0000.0,0009.33,0002.44,0001.57
2023-11-05 00:57:00,SystemResetWarning,0832.5,5.00,000.00,028.1,027.2,000.0,036.3,029.6,13.6,0000.0,0008.98,0002.49,0001.60
2023-11-05 00:58:00,SystemResetWarning,0832.6,5.00,000.00,028.1,027.2,000.0,036.3,029.6,13.6,0000.0,0008.81,0002.61,0001.65
2023-11-05 00:59:00,SystemResetWarning,0832.6,5.00,000.00,028.1,027.2,000.0,036.3,029.6,13.5,0000.0,0008.97,0002.65,0001.68
